Location: Croydon
(51.3762°N, 0.0982°W)
Time: 10:15:27
(UTC+00:00)

Altair - Pass Details

Date: 22 November 2019
Orbit: 1502 x 1682 km, 47.2° (Epoch: 05 December)

Event Time Altitude Azimuth Distance (km) Brightness Sun altitude
Rises 00:42:26 0° 193° (SSW) 4,662 - -56.8°
Reaches altitude 10° 00:46:20 10° 180° (S) 3,665 - -56.5°
Maximum altitude 00:52:52 22° 133° (SE) 2,810 - -56.0°
Drops below altitude 10° 00:59:22 10° 87° (E) 3,658 - -55.5°
Exits shadow 00:59:26 10° 87° (E) 3,673 9.7 -55.5°
Sets 01:03:13 0° 74° (ENE) 4,651 10.4 -55.2°
